Precipitable_Water
0.54 0.46 0.41 0.28 0.12 0.12 0.09 0.08 0.10 0.08 0.11 0.16 0.21 0.16 0.20 0.27 0.36 0.24 0.82 0.91 0.96 0.93 1.07 1.23 1.25 1.22 1.19 1.14 1.07 1.03 1.04 1.01 1.04 1.06 1.08 1.10 1.14 1.16 1.14 1.15 1.19 1.25 1.28 1.31 1.28 1.31 1.36 1.39 1.45
0.54 0.50 0.42 0.27 0.14 0.11 0.10 0.13 0.11 0.11 0.12 0.12 0.12 0.15 0.22 0.24 0.46 0.53 0.71 1.00 0.97 0.98 1.09 1.23 1.22 1.21 1.20 1.15 1.08 1.05 1.05 1.03 1.03 1.07 1.09 1.12 1.13 1.13 1.16 1.13 1.17 1.22 1.27 1.29 1.29 1.30 1.34 1.37 1.39
0.55 0.50 0.30 0.21 0.17 0.15 0.16 0.17 0.15 0.15 0.15 0.14 0.12 0.15 0.19 0.30 0.56 0.76 0.97 1.08 1.05 1.09 1.15 1.19 1.17 1.21 1.17 1.12 1.08 1.06 1.04 1.06 1.05 1.07 1.12 1.12 1.11 1.13 1.15 1.15 1.18 1.24 1.27 1.28 1.30 1.33 1.36 1.31 1.29
0.50 0.44 0.34 0.21 0.17 0.19 0.19 0.22 0.25 0.24 0.23 0.21 0.17 0.12 0.22 0.33 0.52 0.88 1.07 1.09 1.08 1.15 1.20 1.15 1.13 1.13 1.13 1.13 1.12 1.08 1.05 1.04 1.06 1.07 1.11 1.13 1.11 1.13 1.13 1.17 1.21 1.27 1.30 1.30 1.32 1.32 1.29 1.27 1.27
0.51 0.38 0.25 0.22 0.21 0.24 0.27 0.28 0.29 0.28 0.29 0.26 0.21 0.15 0.18 0.37 0.69 0.95 1.10 1.15 1.10 1.16 1.17 1.14 1.12 1.12 1.12 1.12 1.12 1.10 1.07 1.06 1.06 1.07 1.09 1.12 1.12 1.12 1.13 1.17 1.25 1.29 1.31 1.33 1.31 1.30 1.28 1.28 1.33
0.34 0.38 0.24 0.21 0.22 0.27 0.30 0.33 0.31 0.30 0.32 0.34 0.27 0.19 0.21 0.42 0.60 0.93 1.18 1.19 1.22 1.11 1.11 1.13 1.14 1.14 1.14 1.13 1.11 1.11 1.08 1.07 1.06 1.07 1.09 1.12 1.14 1.14 1.16 1.19 1.27 1.31 1.33 1.31 1.28 1.27 1.27 1.29 1.33
0.29 0.27 0.23 0.24 0.24 0.26 0.31 0.37 0.34 0.34 0.34 0.33 0.34 0.23 0.23 0.35 0.56 0.80 1.24 1.26 1.14 1.12 1.08 1.12 1.17 1.16 1.15 1.13 1.11 1.09 1.07 1.05 1.05 1.06 1.08 1.11 1.16 1.17 1.19 1.22 1.28 1.34 1.33 1.30 1.26 1.27 1.29 1.29 1.33
0.35 0.30 0.24 0.24 0.23 0.23 0.31 0.32 0.35 0.34 0.33 0.40 0.37 0.27 0.23 0.34 0.55 0.78 1.05 1.25 1.11 1.09 1.07 1.07 1.13 1.16 1.15 1.14 1.11 1.10 1.08 1.06 1.04 1.04 1.07 1.11 1.16 1.21 1.21 1.24 1.28 1.32 1.30 1.29 1.27 1.27 1.30 1.31 1.33
0.37 0.24 0.20 0.21 0.21 0.22 0.29 0.26 0.33 0.39 0.37 0.41 0.43 0.42 0.43 0.57 0.67 0.72 0.86 1.15 1.06 1.01 1.04 1.07 1.04 1.07 1.09 1.10 1.10 1.10 1.11 1.11 1.06 1.05 1.08 1.13 1.18 1.23 1.24 1.25 1.27 1.29 1.30 1.28 1.28 1.28 1.30 1.31 1.36
0.22 0.18 0.17 0.23 0.23 0.23 0.28 0.28 0.25 0.26 0.29 0.33 0.40 0.46 0.50 0.56 0.63 0.61 0.76 0.94 0.97 0.88 0.94 1.01 1.01 1.01 1.03 1.05 1.09 1.13 1.14 1.15 1.11 1.09 1.09 1.14 1.18 1.21 1.23 1.26 1.27 1.29 1.28 1.28 1.29 1.29 1.31 1.35 1.37
0.22 0.15 0.21 0.24 0.28 0.26 0.24 0.24 0.28 0.21 0.18 0.26 0.30 0.38 0.45 0.46 0.45 0.57 0.66 0.94 1.05 0.99 1.02 1.01 0.99 1.01 0.98 0.99 1.08 1.10 1.12 1.11 1.12 1.12 1.12 1.13 1.15 1.19 1.21 1.24 1.27 1.30 1.29 1.27 1.30 1.30 1.31 1.31 1.33
0.15 0.17 0.18 0.19 0.20 0.18 0.17 0.19 0.18 0.19 0.19 0.23 0.24 0.31 0.36 0.38 0.39 0.39 0.57 0.73 1.04 0.94 0.93 1.03 1.07 1.01 1.00 1.02 1.05 1.07 1.04 1.06 1.06 1.08 1.10 1.10 1.09 1.11 1.13 1.14 1.20 1.24 1.26 1.22 1.25 1.26 1.28 1.30 1.29
0.21 0.23 0.21 0.20 0.19 0.17 0.17 0.15 0.15 0.15 0.18 0.17 0.18 0.19 0.21 0.31 0.36 0.42 0.52 0.69 0.95 1.01 0.91 0.98 1.04 1.01 0.99 0.99 0.99 1.04 0.98 1.01 1.07 1.08 1.11 1.11 1.06 1.04 1.09 1.09 1.13 1.17 1.24 1.21 1.19 1.22 1.24 1.26 1.23
0.19 0.19 0.18 0.18 0.18 0.18 0.15 0.14 0.16 0.15 0.17 0.18 0.17 0.15 0.16 0.19 0.28 0.35 0.41 0.58 0.80 1.02 0.95 0.98 1.01 1.04 1.05 1.00 0.95 0.96 1.00 0.99 1.04 1.06 1.07 1.11 1.08 1.04 1.05 1.04 1.04 1.11 1.19 1.22 1.21 1.18 1.20 1.22 1.22
0.20 0.16 0.16 0.15 0.16 0.16 0.17 0.12 0.12 0.18 0.19 0.18 0.18 0.20 0.20 0.21 0.25 0.31 0.39 0.44 0.65 0.86 1.06 0.95 0.98 1.07 1.02 1.00 0.98 0.94 0.98 0.98 0.96 1.00 1.07 1.09 1.09 1.05 1.04 1.03 1.01 1.05 1.16 1.20 1.21 1.20 1.21 1.19 1.19
0.16 0.15 0.11 0.14 0.16 0.16 0.16 0.08 0.13 0.16 0.18 0.17 0.19 0.18 0.16 0.18 0.22 0.26 0.36 0.42 0.55 0.74 1.02 1.10 1.05 1.01 1.02 0.99 1.03 1.00 0.99 1.02 0.97 0.98 1.04 1.08 1.09 1.08 1.05 1.03 1.02 1.06 1.10 1.15 1.14 1.14 1.13 1.13 1.12
0.15 0.10 0.11 0.12 0.17 0.17 0.17 0.11 0.16 0.19 0.18 0.17 0.19 0.18 0.16 0.16 0.19 0.23 0.31 0.43 0.50 0.72 0.90 1.10 1.19 1.08 1.01 1.05 1.06 1.10 1.10 1.08 1.06 1.02 1.03 1.06 1.09 1.09 1.07 1.05 1.06 1.08 1.06 1.09 1.11 1.11 1.10 1.06 1.07
0.10 0.10 0.12 0.12 0.15 0.19 0.17 0.15 0.16 0.21 0.18 0.16 0.20 0.19 0.17 0.15 0.17 0.26 0.28 0.39 0.48 0.60 0.85 1.05 1.23 1.29 1.22 1.12 1.16 1.20 1.18 1.19 1.23 1.16 1.08 1.10 1.11 1.11 1.12 1.10 1.07 1.10 1.04 1.04 1.08 1.07 1.09 1.07 1.06
0.13 0.13 0.12 0.12 0.14 0.17 0.15 0.17 0.16 0.15 0.16 0.16 0.18 0.20 0.17 0.13 0.18 0.29 0.36 0.41 0.53 0.59 0.74 1.05 1.25 1.40 1.39 1.22 1.17 1.15 1.09 1.17 1.21 1.23 1.24 1.21 1.21 1.20 1.20 1.17 1.14 1.09 1.03 1.02 1.05 1.06 1.03 1.04 1.09
0.14 0.15 0.13 0.13 0.14 0.16 0.15 0.15 0.14 0.13 0.16 0.25 0.25 0.20 0.19 0.17 0.18 0.35 0.40 0.43 0.55 0.63 0.67 0.94 1.14 1.42 1.39 1.30 1.28 1.32 1.30 1.27 1.27 1.28 1.26 1.23 1.22 1.20 1.18 1.16 1.16 1.10 1.05 1.04 1.04 1.03 0.99 1.05 1.05
0.14 0.15 0.14 0.14 0.14 0.15 0.18 0.12 0.19 0.22 0.26 0.32 0.34 0.33 0.30 0.27 0.27 0.35 0.43 0.47 0.53 0.67 0.69 0.73 0.89 1.23 1.37 1.36 1.38 1.34 1.28 1.23 1.15 1.19 1.22 1.25 1.27 1.25 1.25 1.24 1.27 1.15 1.10 1.04 1.05 1.07 1.08 0.98 0.97
0.13 0.21 0.18 0.15 0.15 0.11 0.18 0.10 0.19 0.25 0.28 0.35 0.35 0.38 0.37 0.34 0.37 0.43 0.51 0.52 0.55 0.70 0.75 0.76 0.72 0.73 0.99 1.19 1.14 1.06 0.95 0.89 1.00 1.02 1.14 1.24 1.30 1.31 1.36 1.35 1.36 1.31 1.26 1.16 1.12 1.15 1.16 1.08 0.92
0.16 0.22 0.19 0.18 0.17 0.16 0.14 0.17 0.18 0.29 0.26 0.38 0.40 0.41 0.44 0.45 0.42 0.51 0.57 0.62 0.66 0.76 0.81 0.81 0.82 0.79 0.80 0.90 1.06 1.06 1.02 1.04 1.09 1.08 1.08 1.14 1.24 1.35 1.40 1.46 1.47 1.44 1.42 1.34 1.22 1.15 1.12 1.10 1.02
0.25 0.21 0.19 0.19 0.18 0.12 0.19 0.23 0.21 0.26 0.32 0.39 0.46 0.50 0.52 0.49 0.47 0.54 0.59 0.63 0.71 0.78 0.88 0.86 0.82 0.81 0.85 0.90 0.96 1.06 1.13 1.12 1.09 1.09 1.05 1.06 1.13 1.23 1.32 1.48 1.47 1.50 1.55 1.50 1.39 1.30 1.19 1.12 1.08
0.25 0.19 0.08 0.09 0.14 0.14 0.23 0.22 0.27 0.36 0.40 0.41 0.42 0.46 0.50 0.50 0.51 0.58 0.59 0.60 0.65 0.74 0.80 0.84 0.82 0.81 0.88 0.91 0.97 1.03 1.11 1.15 1.14 1.17 1.13 1.10 1.10 1.11 1.20 1.33 1.40 1.35 1.39 1.43 1.41 1.38 1.31 1.23 1.15
0.25 0.19 0.12 0.09 0.11 0.13 0.22 0.24 0.28 0.41 0.44 0.46 0.47 0.49 0.52 0.55 0.57 0.59 0.62 0.63 0.65 0.68 0.75 0.82 0.85 0.88 0.95 0.97 1.00 1.08 1.12 1.12 1.15 1.16 1.19 1.20 1.16 1.16 1.26 1.32 1.50 1.36 1.28 1.33 1.36 1.35 1.36 1.33 1.26
0.28 0.19 0.24 0.19 0.20 0.18 0.24 0.32 0.40 0.42 0.41 0.44 0.45 0.48 0.51 0.55 0.57 0.59 0.64 0.68 0.70 0.71 0.74 0.78 0.85 0.91 0.99 1.02 1.06 1.03 1.13 1.15 1.09 1.13 1.17 1.17 1.18 1.21 1.28 1.33 1.36 1.46 1.36 1.30 1.29 1.31 1.28 1.29 1.30
0.33 0.31 0.21 0.24 0.16 0.16 0.23 0.25 0.25 0.33 0.37 0.41 0.43 0.46 0.49 0.55 0.55 0.57 0.63 0.67 0.71 0.74 0.78 0.81 0.84 0.86 0.91 0.96 0.97 1.03 1.03 1.06 1.08 1.12 1.12 1.14 1.18 1.21 1.23 1.32 1.37 1.36 1.28 1.21 1.30 1.27 1.29 1.27 1.27
0.33 0.26 0.29 0.29 0.25 0.19 0.18 0.23 0.36 0.35 0.38 0.39 0.43 0.47 0.49 0.53 0.56 0.61 0.62 0.67 0.69 0.73 0.77 0.80 0.83 0.88 0.89 0.94 0.98 0.98 0.97 1.00 1.01 1.02 1.03 1.05 1.13 1.18 1.21 1.25 1.28 1.30 1.24 1.23 1.26 1.29 1.27 1.23 1.23
0.39 0.33 0.32 0.23 0.20 0.26 0.25 0.24 0.40 0.40 0.41 0.43 0.43 0.46 0.50 0.53 0.56 0.60 0.62 0.68 0.70 0.72 0.75 0.77 0.84 0.89 0.91 0.94 0.95 0.95 0.95 0.93 0.93 0.91 0.92 0.93 0.97 1.13 1.18 1.24 1.27 1.30 1.29 1.30 1.27 1.26 1.27 1.23 1.21
Wind_Speed
17 17 16 16 16 15 14 14 13 13 12 13 14 16 18 17 14 13 13 14 13 15 14 15 13 11 9 8 7 6 6 5 5 5 5 4 3 2 1 1 1 1 1 1 1 1 1 2 2
17 16 16 16 17 17 16 15 16 16 16 19 18 16 16 16 17 19 17 14 14 16 15 15 15 13 11 10 9 8 8 7 6 6 6 5 4 3 2 2 1 1 1 2 2 2 2 3 3
16 16 16 15 15 17 15 13 12 12 14 16 17 16 17 16 16 15 16 14 15 16 16 15 15 14 13 11 10 10 9 9 8 7 7 6 5 4 3 3 2 2 2 2 2 2 2 3 3
17 17 17 19 19 16 14 13 14 17 16 13 14 17 16 15 16 16 15 14 16 17 16 15 14 14 14 13 12 11 11 10 10 9 8 8 7 6 5 4 3 3 3 3 3 3 3 3 4
19 19 20 19 20 19 18 18 19 18 18 18 16 17 19 15 15 15 14 15 16 17 17 17 15 14 15 14 13 13 12 11 11 11 10 9 8 7 6 5 4 4 4 3 3 3 3 3 3
19 19 20 21 22 20 20 20 18 19 19 19 18 18 17 16 15 14 16 17 17 18 17 17 16 15 15 15 15 14 13 12 12 11 11 10 9 8 7 7 6 5 4 4 4 4 3 3 4
20 21 23 22 22 22 21 20 22 24 22 20 19 19 18 16 16 16 18 19 20 19 18 17 17 16 16 16 16 15 14 13 13 12 12 11 10 10 9 8 7 6 6 5 5 5 4 4 4
20 21 22 22 23 25 22 21 21 22 21 18 18 17 17 19 19 18 19 22 22 22 20 19 18 17 18 18 17 16 15 14 14 13 13 12 11 11 10 9 9 8 7 7 6 6 5 5 5
20 22 24 24 24 23 22 21 20 22 25 23 23 23 22 20 19 19 20 23 24 24 23 21 19 19 18 18 19 18 16 16 15 14 14 13 12 12 11 11 10 10 9 8 8 7 7 6 6
22 23 23 23 25 25 25 24 25 24 26 28 27 24 24 22 21 21 23 25 27 27 25 24 22 21 19 19 19 19 18 17 16 15 14 14 13 13 12 12 12 11 11 10 9 9 8 7 7
22 25 24 25 25 25 27 29 27 27 28 25 29 31 30 28 27 26 25 28 30 29 27 26 24 23 22 21 20 19 19 18 17 16 15 15 14 14 13 13 13 12 12 11 11 10 10 9 9
26 26 26 27 28 31 33 33 34 34 35 32 33 35 36 35 32 31 29 28 33 32 31 29 27 24 23 22 21 21 20 20 19 19 17 16 15 14 14 14 14 14 14 13 12 12 11 11 11
29 28 29 31 34 35 37 39 39 40 39 38 37 35 36 36 36 34 32 31 33 36 34 32 30 28 25 24 23 22 22 21 21 20 19 18 17 16 15 15 15 15 15 15 14 13 13 13 12
27 32 34 35 38 39 40 40 36 36 40 39 39 39 38 39 38 38 36 34 34 36 38 35 33 32 29 26 25 24 24 24 23 22 21 20 19 17 17 16 16 16 16 16 16 15 15 15 15
29 35 37 36 32 31 36 43 37 35 38 40 41 40 40 39 40 41 40 39 38 37 39 39 37 34 32 29 27 26 25 26 25 24 23 23 21 19 18 18 18 17 17 17 17 16 16 16 17
30 31 29 26 34 33 33 48 41 44 42 46 47 46 46 45 42 42 43 43 41 40 40 42 40 38 35 32 30 28 28 28 27 26 26 26 24 22 20 19 19 19 18 18 18 18 17 18 18
26 32 35 36 33 38 33 47 37 48 49 51 50 51 51 49 47 44 43 45 44 43 42 43 43 41 38 35 32 31 30 30 29 29 28 28 27 25 23 22 21 21 19 19 19 18 18 18 19
31 34 36 38 32 40 44 49 51 49 50 51 51 52 52 53 51 45 44 45 46 45 45 45 45 44 41 37 34 33 31 31 30 29 29 29 29 28 26 25 23 23 21 21 20 20 19 19 19
34 36 40 41 42 41 44 47 52 52 49 51 50 50 52 54 52 47 43 43 44 44 44 46 47 46 43 40 37 35 33 32 32 31 30 30 29 29 28 28 26 25 24 23 22 21 20 20 20
31 34 38 41 39 39 43 46 47 47 47 45 46 50 50 51 49 46 43 42 42 43 43 45 46 47 46 42 39 37 36 36 35 34 32 31 30 30 29 29 29 28 27 25 24 23 21 20 20
30 32 35 38 42 42 37 36 30 35 37 32 33 34 36 39 43 43 41 40 40 40 40 42 44 45 46 45 42 39 36 35 35 35 34 34 33 32 31 30 30 30 30 28 27 26 24 22 21
31 26 30 33 31 26 22 27 26 22 21 20 21 22 23 26 32 37 37 37 38 39 39 40 39 40 41 41 40 40 39 37 36 36 36 36 36 35 34 33 32 31 30 30 29 28 27 24 23
23 24 25 24 22 21 18 15 14 15 16 16 16 16 16 17 20 25 29 31 33 35 36 37 37 36 37 39 39 40 40 38 36 36 36 37 38 38 37 36 35 33 31 31 31 30 29 28 26
18 20 20 15 11 8 8 9 8 14 17 19 16 15 11 9 12 16 21 24 27 30 33 33 33 32 32 33 35 35 37 37 35 34 34 34 35 36 37 37 36 35 33 32 31 32 32 30 29
13 13 11 6 3 5 10 12 8 15 19 15 14 11 8 3 6 9 13 17 22 24 28 31 31 31 31 32 33 34 33 33 33 34 34 33 34 34 35 37 36 35 34 34 33 33 33 33 32
9 8 6 4 5 11 14 8 6 16 16 17 14 9 5 1 2 6 8 11 15 19 21 25 28 29 31 33 33 33 32 33 32 32 31 33 33 33 34 36 37 37 37 36 37 34 33 33 34
9 7 5 6 8 7 7 5 6 17 17 16 15 12 9 5 2 3 5 7 9 13 16 18 20 21 25 29 29 31 31 31 31 31 32 31 33 34 35 35 36 35 34 32 32 33 32 33 34
11 4 3 3 5 8 6 5 12 14 16 16 16 14 10 8 5 4 4 5 6 8 11 12 14 17 17 20 21 24 26 27 29 30 32 34 34 34 34 35 35 35 35 33 33 33 32 32 33
6 6 7 6 5 5 7 6 12 11 12 13 16 15 12 10 8 4 4 4 5 5 7 8 9 11 13 15 18 19 22 23 25 28 30 32 35 37 37 36 37 36 36 35 35 35 34 33 33
5 6 9 6 4 4 5 5 11 9 10 12 13 15 14 14 9 8 6 5 5 3 4 5 6 8 9 11 14 16 18 21 23 25 28 29 31 35 36 37 38 38 39 38 38 37 36 35 35
Wind_Direction
269 271 268 267 263 264 264 267 270 265 259 256 264 270 269 270 261 268 282 264 240 220 218 219 221 224 224 226 229 228 222 219 211 203 200 195 197 192 184 168 170 176 186 188 219 227 239 235 223
266 266 267 267 261 258 265 267 261 263 260 270 269 266 266 270 266 270 274 255 230 219 218 220 221 225 227 229 230 227 225 221 214 211 206 207 208 210 209 205 202 213 219 227 235 242 247 240 238
264 264 264 264 259 258 263 263 264 268 270 266 266 263 266 263 270 270 269 242 223 218 218 219 219 227 230 230 229 229 227 224 222 220 218 218 219 216 216 219 222 229 231 240 248 242 248 249 247
263 263 265 259 256 263 262 267 264 275 274 266 264 266 265 265 268 269 261 230 220 220 220 219 223 228 229 232 230 230 227 226 227 227 226 225 225 224 223 226 233 241 238 244 245 248 257 250 247
263 263 261 262 263 266 264 266 269 271 270 267 269 263 265 262 271 265 241 229 223 219 222 223 227 231 232 233 233 230 229 229 229 229 229 228 228 228 228 229 234 241 240 244 252 252 255 245 239
261 263 262 263 264 264 265 266 265 266 266 269 264 260 253 266 272 262 235 229 224 221 224 226 229 235 234 232 232 231 231 230 230 229 229 229 229 230 231 231 233 239 244 245 247 240 249 241 237
260 262 264 264 265 267 268 268 265 266 265 264 262 261 256 261 273 259 238 231 227 226 228 230 231 234 234 232 231 232 231 231 230 229 229 230 230 230 232 233 234 239 242 245 242 237 244 247 243
262 264 264 265 268 271 268 265 264 261 263 260 256 255 256 268 271 257 243 234 229 228 231 232 232 233 233 232 231 231 231 231 231 230 230 230 230 232 234 235 236 240 244 246 244 241 244 249 252
263 263 265 267 267 271 270 271 264 263 262 259 259 261 265 268 263 258 246 236 230 231 232 233 234 233 233 232 231 230 232 231 232 232 231 231 233 234 235 238 238 240 245 246 246 245 248 252 254
263 264 266 268 268 270 271 272 276 269 268 263 258 255 263 269 262 261 251 240 233 232 232 233 234 231 232 232 231 231 232 231 232 233 231 232 235 236 238 239 239 242 244 247 247 247 249 252 254
268 268 268 270 273 276 273 274 273 273 268 262 263 263 266 268 265 261 257 244 237 235 234 234 232 232 232 233 232 231 232 231 232 232 232 234 236 237 239 241 240 243 244 247 247 248 251 253 255
273 272 274 273 276 277 276 276 272 269 269 267 267 264 263 264 264 260 255 249 239 236 235 234 233 231 231 232 232 233 234 233 234 234 234 235 237 239 241 242 242 244 245 247 248 251 251 253 256
271 272 273 275 277 276 275 273 272 270 271 268 266 264 262 260 259 257 254 251 241 236 234 233 234 233 232 230 232 234 236 236 235 235 235 237 239 240 242 243 243 245 246 247 249 252 251 254 257
278 279 279 278 278 277 273 273 272 269 272 268 267 265 263 260 258 256 252 249 244 238 233 233 234 233 231 231 233 236 236 235 235 237 238 238 240 243 243 244 245 245 246 248 250 253 254 256 258
279 282 282 281 276 276 280 272 269 270 275 272 270 267 264 260 257 253 250 248 246 242 235 232 233 233 231 231 233 236 237 236 237 238 238 238 241 243 246 245 246 246 247 249 251 253 255 258 259
284 281 283 278 283 282 285 274 276 275 276 275 272 268 264 260 257 254 251 248 245 242 235 232 231 232 232 232 232 236 237 237 238 239 240 241 242 244 246 248 248 246 248 250 253 254 257 260 261
284 284 284 287 285 282 277 278 273 281 277 274 271 268 264 261 257 254 252 247 243 239 235 231 230 230 232 233 233 237 238 238 239 240 242 242 242 244 246 248 248 246 249 250 252 255 258 260 262
287 286 284 285 286 284 283 279 279 281 278 275 273 268 265 260 256 254 252 247 242 239 235 231 229 229 231 233 233 237 238 239 239 241 242 242 242 243 245 248 249 246 248 250 251 254 258 262 262
287 287 288 286 288 288 285 283 283 282 279 277 274 270 265 259 255 252 248 245 239 235 232 230 229 229 229 233 232 235 238 238 238 240 242 242 243 244 246 247 247 246 247 249 250 254 257 261 262
289 290 287 289 292 293 290 288 286 283 280 279 276 270 266 259 252 249 245 240 237 233 232 228 228 228 229 231 234 237 241 241 240 240 242 242 244 244 246 246 246 245 246 247 249 251 257 259 259
289 287 290 290 297 296 293 291 291 291 285 281 280 277 270 260 250 246 242 236 234 230 229 227 228 229 230 232 235 236 239 241 240 241 243 243 243 245 245 246 247 245 245 247 249 251 253 256 259
297 293 291 294 300 297 307 298 308 312 308 302 292 288 278 263 250 242 237 233 230 227 226 224 224 225 228 231 233 235 238 239 242 244 245 244 244 245 246 245 245 246 246 246 249 250 252 255 258
303 303 301 296 293 299 304 296 310 337 335 335 324 308 287 267 248 235 231 226 223 222 221 221 222 227 231 231 235 236 238 241 243 245 246 245 246 245 245 245 244 244 244 246 247 249 251 254 256
310 310 307 295 290 291 325 333 330 343 333 326 325 323 309 275 237 227 223 219 217 218 217 218 222 226 230 232 232 234 239 239 241 243 245 244 245 246 245 245 245 245 247 249 248 249 250 253 255
309 314 320 309 290 296 332 327 344 342 341 339 339 335 330 299 228 221 214 215 215 218 220 222 226 229 232 232 234 237 242 241 242 244 243 243 244 245 245 243 243 246 249 251 253 251 252 254 254
305 306 310 314 326 319 323 340 351 355 352 348 346 344 352 339 197 202 198 207 212 218 222 225 229 233 235 235 239 242 243 240 242 243 245 243 243 245 247 244 243 245 250 256 252 250 253 256 255
320 281 262 292 297 308 346 4 310 351 3 8 14 24 24 47 100 158 182 197 208 213 217 221 226 229 231 236 238 243 241 243 243 245 245 247 247 248 247 246 246 245 250 259 242 250 254 257 254
279 277 250 267 302 319 341 357 347 355 4 12 16 23 33 47 69 117 148 170 190 201 207 214 220 228 234 234 242 238 241 243 245 248 250 250 250 249 249 247 247 247 251 247 249 252 256 257 254
291 250 234 255 271 308 329 6 360 2 5 11 22 28 39 50 56 85 137 141 156 172 188 202 215 226 234 233 237 243 248 250 252 254 255 256 253 250 250 250 250 249 247 248 250 253 256 255 255
284 257 226 244 259 288 318 341 352 6 15 16 18 20 27 36 43 69 89 109 130 142 179 205 226 236 241 249 254 259 259 261 261 260 260 261 257 252 251 251 250 250 248 251 252 253 255 255 255